Lincoln, IL

4:17 AM CST on December 14, 2017 (GMT -0600)
Lincoln

Weather History for KAAA - May, 2013

Change the Weather History Date:

Thursday, May 9, 2013

  Actual Average (KSPI) Record (KSPI)
Temperature  
Mean Temperature 64 °F -  
Max Temperature 68 °F 70 °F 93 °F (1963)
Min Temperature 61 °F 48 °F 32 °F (1966)
Growing Degree Days 14 (Base 50)    
Moisture  
Dew Point 59 °F    
Average Humidity 86    
Maximum Humidity 94    
Minimum Humidity 75    
Precipitation  
Precipitation 0.00 in - - ()
Sea Level Pressure  
Sea Level Pressure 29.95 in    
Wind  
Wind Speed 3 mph (SE)    
Max Wind Speed 15 mph    
Max Gust Speed 20 mph    
Visibility 7 miles    
Events Fog , Rain , Thunderstorm    
Averages and records for this station are not official NWS values.
T = Trace of Precipitation, MM = Missing Value Source: NWS Daily Summary

Daily Weather History Graph

Daily Weather History Graph

Search for Another Location

Airport or City:

Trip Planner

Search our weather history database for the weather conditions in past years. The results will help you decide how hot, cold, wet, or windy it might be!

Date:

Astronomy

May. 09, 2013 Rise Set
Actual Time 5:47 AM CDT 8:00 PM CDT
Civil Twilight 5:17 AM CDT 8:30 PM CDT
Nautical Twilight 4:40 AM CDT 9:08 PM CDT
Astronomical Twilight 3:59 AM CDT 9:49 PM CDT
Moon 5:31 AM CDT (5/9) 7:55 PM CDT (5/9)
Length of Visible Light 15h 13m
Length of Day
14h 13m
Waning Crescent, 0% of the Moon is Illuminated
May 9
Waning Crescent
May 9
New
May 17
First Quarter
May 24
Full
May 31
Last Quarter

Hourly Weather History & Observations

Time (CDT) Temp. Dew Point Humidity Pressure Visibility Wind Dir Wind Speed Gust Speed Precip Events Conditions
12:35 AM 64.4 °F 56.3 °F 75% 29.97 in 10.0 mi Calm Calm - N/A   Overcast
12:55 AM 64.4 °F 57.2 °F 77% 29.97 in 10.0 mi Calm Calm - N/A   Overcast
1:35 AM 63.3 °F 57.2 °F 80% 29.95 in 10.0 mi Calm Calm - N/A   Overcast
2:15 AM 62.6 °F 57.7 °F 84% 29.95 in 10.0 mi Calm Calm - N/A   Overcast
2:55 AM 63.3 °F 57.2 °F 80% 29.96 in 10.0 mi SSE 3.5 mph - N/A   Overcast
4:55 AM 61.3 °F 58.3 °F 90% 29.94 in 0.5 mi South 3.5 mph - N/A Fog Fog
5:15 AM 62.2 °F 57.9 °F 86% 29.94 in 1.5 mi South 4.6 mph - N/A   Overcast
5:35 AM 62.6 °F 57.9 °F 85% 29.94 in 0.5 mi South 6.9 mph - N/A   Haze
6:35 AM 61.5 °F 58.3 °F 89% 29.94 in 10.0 mi Calm Calm - N/A Thunderstorm Mostly Cloudy
8:15 AM 62.4 °F 59.9 °F 91% 30.01 in 4.0 mi Calm Calm - N/A Rain , Thunderstorm Rain
8:35 AM 61.9 °F 59.9 °F 93% 29.99 in 2.5 mi Calm Calm - N/A Rain , Thunderstorm Heavy Thunderstorms and Rain
9:15 AM 61.7 °F 59.9 °F 94% 29.98 in 4.0 mi East 3.5 mph - N/A Rain , Thunderstorm Thunderstorms and Rain
9:55 AM 62.1 °F 60.3 °F 94% 29.95 in 7.0 mi East 6.9 mph - N/A Rain , Thunderstorm Rain
10:15 AM 63.5 °F 61.2 °F 92% 29.95 in 10.0 mi ESE 9.2 mph - N/A   Overcast
10:35 AM 65.3 °F 60.8 °F 85% 29.94 in 10.0 mi ESE 10.4 mph - N/A   Mostly Cloudy
10:55 AM 68.0 °F 62.2 °F 82% 29.93 in 10.0 mi ESE 10.4 mph - N/A   Scattered Clouds
11:15 AM 68.2 °F 61.7 °F 80% 29.93 in 10.0 mi SE 10.4 mph 19.6 mph N/A   Scattered Clouds
11:55 AM 65.8 °F 61.2 °F 85% 29.96 in 4.0 mi South 15.0 mph - N/A Rain , Thunderstorm Heavy Thunderstorms and Rain
5:55 PM 67.5 °F 63.0 °F 85% 29.81 in 10.0 mi SE 6.9 mph - N/A   Light Drizzle